Regional Weather Roundup
Issued by NWS

Home | Current Version | Previous Version | Text Only | Print | Product List | Glossary Off
Versions: 1 2 3 4 5 6 7 8 9 10 11 12 13 14 15 16 17 18 19 20 21 22 23 24 25 26 27 28 29 30 31 32 33 34 35 36 37 38 39 40 41 42 43 44 45 46 47 48 49 50

000
ASUS45 KBOI 070810
RWRID

IDAHO REGIONAL WEATHER ROUNDUP
NATIONAL WEATHER SERVICE BOISE ID
100 AM MST WED DEC 07 2016

NOTE: "FAIR" INDICATES FEW OR NO CLOUDS BELOW 12000 FEET
WITH NO SIGNIFICANT WEATHER AND/OR OBSTRUCTIONS TO VISIBILITY

IDZ012-014-070900-
SOUTHWEST IDAHO


CITY           SKY/WX    TMP DP  RH WIND       PRES   REMARKS
BOISE          CLEAR     14  11  87 CALM      30.17R
CALDWELL       MOCLDY    14  12  92 CALM      30.22R
$$

IDZ016-017-070900-
SOUTHCENTRAL IDAHO


CITY           SKY/WX    TMP DP  RH WIND       PRES   REMARKS
BURLEY         CLOUDY    19  16  88 W8        30.07R WCI   9
JEROME         CLOUDY    19  17  92 SW13      30.08R WCI   6
TWIN FALLS     CLOUDY    17  13  84 SW10      30.09R WCI   5
$$

IDZ019>023-070900-
SOUTHEAST IDAHO


CITY           SKY/WX    TMP DP  RH WIND       PRES   REMARKS
IDAHO FALLS    CLOUDY    12   3  67 NW7       30.02R WCI   1
POCATELLO      FLURRIES  16  13  88 S3        30.05R
REXBURG        CLOUDY     6   1  80 E5        30.01R WCI  -3
$$

IDZ006-010-011-018-031-032-070900-
CENTRAL IDAHO MOUNTAINS


CITY           SKY/WX    TMP DP  RH WIND       PRES   REMARKS
MCCALL         CLOUDY     9   5  84 CALM      30.03R
HAILEY         CLEAR      3   0  85 NW7       30.03R WCI  -9
STANLEY          N/A     -4  -9  79 CALM      29.97R
SALMON         CLOUDY    12   9  85 CALM      30.09R
CHALLIS        CLOUDY     9   8  96 CALM      30.03R
$$

IDZ002-004-006-007-026-070900-
NORTHERN IDAHO


CITY           SKY/WX    TMP DP  RH WIND       PRES   REMARKS
LEWISTON       CLOUDY    26  18  71 W3        30.30R
LOWELL         NOT AVBL
COEUR D`ALENE  CLOUDY    18  15  88 E6        30.26R WCI  10
MULLAN PASS    CLOUDY     6   2  83 SE5       29.98R WCI  -3
$$



USA.gov is the U.S. government's official web portal to all federal, state and local government web resources and services.